EW2997 Weather Reports


time (UTC)temp
C
wind
direction
speed
KPH
gust
KPH
rain 1hr
cm
rain 24hr
cm
rain mn
cm
humidity
%
barometer
mb
20260505152138 23 180 9.7 11.3 0.00 0.00 0.00 48 1013.5
20260505122120 18 210 8.0 8.0 0.00 0.00 0.00 64 1014.2
20260505115115 17 180 1.6 1.6 0.00 0.00 0.00 67 1014.5
20260505112114 13 228 0.0 0.0 0.00 0.00 0.00 80 1014.5
20260505102113 12 165 0.0 0.0 0.00 0.00 0.00 84 1013.9
20260505095111 11 210 0.0 0.0 0.00 0.00 0.00 85 1013.9
20260505092111 12 130 0.0 0.0 0.00 0.00 0.00 82 1013.2
20260505085108 12 156 0.0 0.0 0.00 0.00 0.00 82 1013.2
20260505082108 12 136 3.2 3.2 0.00 0.00 0.00 78 1013.2
20260505075104 12 126 3.2 3.2 0.00 0.00 0.00 83 1012.9
20260505072103 12 156 0.0 0.0 0.00 0.00 0.00 79 1012.9
20260505065100 12 164 3.2 3.2 0.00 0.00 0.00 80 1012.5
20260505062100 12 144 3.2 3.2 0.00 0.00 0.00 82 1012.9
20260505055059 14 141 3.2 3.2 0.00 0.00 0.00 77 1012.9
20260505052059 13 144 3.2 3.2 0.00 0.00 0.00 78 1012.9
20260505035051 15 132 3.2 3.2 0.00 0.03 0.03 77 1012.9
20260505032051 14 152 1.6 1.6 0.00 0.03 0.03 80 1012.9
20260505025050 15 146 0.0 0.0 0.00 0.03 0.03 83 1012.9
20260505022045 15 150 3.2 3.2 0.00 0.03 0.03 83 1012.5
20260505015040 14 198 0.0 0.0 0.00 0.03 0.03 85 1012.5
20260505012036 15 156 0.0 0.0 0.00 0.03 0.03 87 1012.5
20260505005032 16 142 1.6 1.6 0.03 0.03 0.03 77 1012.1
20260505002031 20 182 0.0 0.0 0.00 0.00 0.00 50 1011.7
20260504235031 21 178 1.6 1.6 0.00 0.00 0.00 47 1011.4
20260504232029 22 344 3.2 3.2 0.00 0.00 0.00 45 1011.4
20260504225028 23 168 9.7 9.7 0.00 0.00 0.00 42 1011.1
20260504222026 22 216 9.7 11.3 0.00 0.00 0.00 43 1011.4
20260504215025 23 246 11.3 12.9 0.00 0.00 0.00 41 1011.4
20260504212022 23 222 4.8 4.8 0.00 0.00 0.00 42 1011.4
20260504205017 22 179 17.7 19.3 0.00 0.00 0.00 41 1011.4
20260504202013 22 307 9.7 9.7 0.00 0.00 0.00 41 1011.7
20260504195011 22 222 3.2 3.2 0.00 0.00 0.00 41 1012.1
20260504192006 22 258 6.4 8.0 0.00 0.00 0.00 40 1012.9
20260504185003 22 198 9.7 11.3 0.00 0.00 0.00 38 1012.9
20260504182000 22 300 9.7 11.3 0.00 0.00 0.00 43 1013.5
20260504174958 21 204 4.8 4.8 0.00 0.00 0.00 47 1013.9
20260504171957 20 210 9.7 9.7 0.00 0.00 0.00 46 1014.5